ANZ845M NZNS-NZCH

Flight info

Callsign ANZ845M
Flight time 0h 43m
Altitude 18000
Route IDNIM2P NESTA Q787 ALADA Y894 IGEGA UPVES1B
Aircraft AT76/M-V/N

Departure

Time 2026-04-18 05:09
Airport Nelson Airport (NZNS)

Arrival

Time 2026-04-18 05:52
Airport Christchurch International Airport (NZCH)
Time Latitude Longitude Altitude Speed Heading
2026-04-18 04:39 -41.29979 173.22401 13 ft 0 kts 143°
2026-04-18 05:01 -41.29959 173.22382 12 ft 4 kts 150°
2026-04-18 05:01 -41.29935 173.22367 14 ft 4 kts 166°
2026-04-18 05:01 -41.29910 173.22365 12 ft 4 kts 205°
2026-04-18 05:02 -41.29902 173.22371 12 ft 0 kts 221°
2026-04-18 05:05 -41.29908 173.22364 12 ft 3 kts 222°
2026-04-18 05:05 -41.29937 173.22329 12 ft 8 kts 223°
2026-04-18 05:05 -41.29982 173.22274 9 ft 10 kts 222°
2026-04-18 05:06 -41.30038 173.22212 9 ft 10 kts 220°
2026-04-18 05:06 -41.30090 173.22151 9 ft 10 kts 221°
2026-04-18 05:06 -41.30143 173.22091 8 ft 11 kts 219°
2026-04-18 05:06 -41.30191 173.22016 7 ft 10 kts 264°
2026-04-18 05:07 -41.30156 173.21941 5 ft 9 kts 308°
2026-04-18 05:07 -41.30114 173.21921 5 ft 5 kts 19°
2026-04-18 05:07 -41.30105 173.21931 5 ft 0 kts 40°
2026-04-18 05:08 -41.30102 173.21934 3 ft 6 kts 41°
2026-04-18 05:08 -41.29932 173.22127 6 ft 62 kts 42°
2026-04-18 05:08 -41.29461 173.22662 8 ft 114 kts 42°
2026-04-18 05:08 -41.28815 173.23437 269 ft 131 kts 43°
2026-04-18 05:09 -41.28090 173.24255 694 ft 136 kts 39°
2026-04-18 05:09 -41.27406 173.24966 1465 ft 119 kts 19°
2026-04-18 05:09 -41.26577 173.24840 1857 ft 129 kts 327°
2026-04-18 05:09 -41.26180 173.23825 2476 ft 124 kts 288°
2026-04-18 05:10 -41.25987 173.22712 3006 ft 126 kts 289°
2026-04-18 05:10 -41.25818 173.21558 3502 ft 126 kts 281°
2026-04-18 05:10 -41.26127 173.20426 3855 ft 149 kts 234°
2026-04-18 05:10 -41.27073 173.19728 4325 ft 145 kts 228°
2026-04-18 05:11 -41.27335 173.18586 4642 ft 126 kts 287°
2026-04-18 05:11 -41.26991 173.17602 5083 ft 116 kts 300°
2026-04-18 05:11 -41.26698 173.16545 5308 ft 123 kts 291°
2026-04-18 05:11 -41.26434 173.15488 5695 ft 120 kts 290°
2026-04-18 05:12 -41.26202 173.14386 5962 ft 125 kts 289°
2026-04-18 05:12 -41.25948 173.13320 6340 ft 119 kts 291°
2026-04-18 05:12 -41.25667 173.12275 6665 ft 120 kts 292°
2026-04-18 05:12 -41.25389 173.11221 6904 ft 125 kts 294°
2026-04-18 05:13 -41.24992 173.10018 6736 ft 158 kts 300°
2026-04-18 05:13 -41.24538 173.08712 7019 ft 157 kts 291°
2026-04-18 05:13 -41.24248 173.07295 7313 ft 158 kts 289°
2026-04-18 05:13 -41.23926 173.05881 7519 ft 163 kts 291°
2026-04-18 05:14 -41.23588 173.04410 7703 ft 169 kts 288°
2026-04-18 05:14 -41.23275 173.02929 8062 ft 165 kts 287°
2026-04-18 05:14 -41.22990 173.01491 8423 ft 160 kts 290°
2026-04-18 05:14 -41.22670 173.00059 8669 ft 163 kts 278°
2026-04-18 05:15 -41.22839 172.98942 8810 ft 179 kts 246°
2026-04-18 05:15 -41.23794 172.97757 9035 ft 187 kts 229°
2026-04-18 05:15 -41.24786 172.96665 9273 ft 189 kts 230°
2026-04-18 05:15 -41.25799 172.95533 9521 ft 190 kts 232°
2026-04-18 05:16 -41.26766 172.94361 9803 ft 187 kts 233°
2026-04-18 05:16 -41.27703 172.93166 10034 ft 187 kts 237°
2026-04-18 05:16 -41.28586 172.91874 10242 ft 188 kts 239°
2026-04-18 05:16 -41.29451 172.90564 10516 ft 187 kts 238°
2026-04-18 05:17 -41.30316 172.89283 10802 ft 186 kts 238°
2026-04-18 05:17 -41.31223 172.88031 11031 ft 188 kts 237°
2026-04-18 05:17 -41.32130 172.86758 11233 ft 191 kts 236°
2026-04-18 05:17 -41.33083 172.85504 11471 ft 193 kts 234°
2026-04-18 05:18 -41.34055 172.84274 11762 ft 193 kts 234°
2026-04-18 05:18 -41.35022 172.83061 12041 ft 190 kts 236°
2026-04-18 05:18 -41.35974 172.81829 12281 ft 191 kts 237°
2026-04-18 05:18 -41.36944 172.80620 12486 ft 199 kts 227°
2026-04-18 05:19 -41.38234 172.79816 12724 ft 213 kts 206°
2026-04-18 05:19 -41.39717 172.79531 13042 ft 217 kts 192°
2026-04-18 05:19 -41.41235 172.79549 13243 ft 218 kts 190°
2026-04-18 05:19 -41.42784 172.79603 13321 ft 229 kts 189°
2026-04-18 05:20 -41.44408 172.79696 13497 ft 234 kts 185°
2026-04-18 05:20 -41.46038 172.79910 13679 ft 237 kts 184°
2026-04-18 05:20 -41.47682 172.80144 13868 ft 238 kts 184°
2026-04-18 05:20 -41.49335 172.80371 14071 ft 239 kts 185°
2026-04-18 05:21 -41.50999 172.80567 14300 ft 240 kts 185°
2026-04-18 05:21 -41.52672 172.80740 14562 ft 242 kts 185°
2026-04-18 05:21 -41.54354 172.80918 14898 ft 243 kts 185°
2026-04-18 05:21 -41.56054 172.81100 15217 ft 247 kts 186°
2026-04-18 05:22 -41.57780 172.81276 15435 ft 250 kts 186°
2026-04-18 05:22 -41.59528 172.81442 15600 ft 251 kts 186°
2026-04-18 05:22 -41.61255 172.81618 15732 ft 253 kts 186°
2026-04-18 05:22 -41.63015 172.81813 15863 ft 255 kts 186°
2026-04-18 05:23 -41.64787 172.82009 16005 ft 256 kts 186°
2026-04-18 05:23 -41.66568 172.82212 16121 ft 257 kts 186°
2026-04-18 05:23 -41.68347 172.82407 16270 ft 255 kts 188°
2026-04-18 05:23 -41.69996 172.82015 16352 ft 233 kts 215°
2026-04-18 05:24 -41.71488 172.81181 16461 ft 230 kts 220°
2026-04-18 05:24 -41.72868 172.80165 16585 ft 223 kts 227°
2026-04-18 05:24 -41.74133 172.78995 16703 ft 219 kts 232°
2026-04-18 05:24 -41.75341 172.77752 16837 ft 218 kts 234°
2026-04-18 05:25 -41.76534 172.76512 16982 ft 219 kts 234°
2026-04-18 05:25 -41.77769 172.75255 17119 ft 220 kts 234°
2026-04-18 05:25 -41.78988 172.74021 17287 ft 220 kts 234°
2026-04-18 05:25 -41.80193 172.72790 17423 ft 220 kts 235°
2026-04-18 05:26 -41.81418 172.71550 17549 ft 222 kts 235°
2026-04-18 05:26 -41.82652 172.70285 17591 ft 226 kts 235°
2026-04-18 05:26 -41.83991 172.69083 17609 ft 247 kts 217°
2026-04-18 05:26 -41.85734 172.68528 17628 ft 265 kts 202°
2026-04-18 05:27 -41.87596 172.68220 17631 ft 271 kts 200°
2026-04-18 05:27 -41.89488 172.67945 17631 ft 274 kts 200°
2026-04-18 05:27 -41.91393 172.67642 17630 ft 277 kts 200°
2026-04-18 05:27 -41.93319 172.67322 17651 ft 281 kts 200°
2026-04-18 05:28 -41.95265 172.66985 17638 ft 282 kts 201°
2026-04-18 05:28 -41.97206 172.66596 17711 ft 283 kts 202°
2026-04-18 05:28 -41.99164 172.66156 17777 ft 287 kts 202°
2026-04-18 05:28 -42.00687 172.65834 17770 ft 293 kts 201°
2026-04-18 05:29 -42.02724 172.65486 17455 ft 295 kts 199°
2026-04-18 05:29 -42.04706 172.65190 17299 ft 283 kts 200°
2026-04-18 05:29 -42.06647 172.64780 17444 ft 276 kts 202°
2026-04-18 05:29 -42.08509 172.64373 17421 ft 275 kts 202°
2026-04-18 05:30 -42.10397 172.64011 17454 ft 273 kts 202°
2026-04-18 05:30 -42.12273 172.63683 17263 ft 268 kts 200°
2026-04-18 05:30 -42.14083 172.63318 17459 ft 259 kts 204°
2026-04-18 05:30 -42.15847 172.62961 17433 ft 252 kts 204°
2026-04-18 05:31 -42.16995 172.62701 17490 ft 252 kts 205°
2026-04-18 05:31 -42.18734 172.62303 17519 ft 256 kts 202°
2026-04-18 05:31 -42.20516 172.61984 17390 ft 261 kts 197°
2026-04-18 05:31 -42.22304 172.61732 17463 ft 256 kts 202°
2026-04-18 05:32 -42.24073 172.61375 17515 ft 258 kts 203°
2026-04-18 05:32 -42.26437 172.60862 17513 ft 262 kts 202°
2026-04-18 05:32 -42.27656 172.60609 17527 ft 263 kts 201°
2026-04-18 05:32 -42.29470 172.60245 17545 ft 264 kts 202°
2026-04-18 05:33 -42.31305 172.59883 17507 ft 269 kts 199°
2026-04-18 05:33 -42.33150 172.59610 17473 ft 269 kts 199°
2026-04-18 05:33 -42.34996 172.59255 17530 ft 268 kts 202°
2026-04-18 05:33 -42.36858 172.58855 17473 ft 273 kts 202°
2026-04-18 05:34 -42.38707 172.58394 17524 ft 271 kts 201°
2026-04-18 05:34 -42.40599 172.58025 17557 ft 277 kts 199°
2026-04-18 05:34 -42.42526 172.57710 17583 ft 281 kts 197°
2026-04-18 05:34 -42.44477 172.57380 17534 ft 284 kts 198°
2026-04-18 05:35 -42.46442 172.57051 17417 ft 283 kts 199°
2026-04-18 05:35 -42.48383 172.56668 17450 ft 281 kts 199°
2026-04-18 05:35 -42.50308 172.56292 17350 ft 278 kts 201°
2026-04-18 05:35 -42.52211 172.55892 17305 ft 276 kts 201°
2026-04-18 05:36 -42.54097 172.55495 17273 ft 271 kts 200°
2026-04-18 05:36 -42.55948 172.55102 17454 ft 269 kts 200°
2026-04-18 05:36 -42.57810 172.54707 17500 ft 273 kts 200°
2026-04-18 05:36 -42.59685 172.54348 17465 ft 276 kts 199°
2026-04-18 05:37 -42.61592 172.53975 17513 ft 279 kts 200°
2026-04-18 05:37 -42.63519 172.53593 17460 ft 282 kts 199°
2026-04-18 05:37 -42.65467 172.53222 17367 ft 284 kts 198°
2026-04-18 05:37 -42.67482 172.52835 16972 ft 299 kts 197°
2026-04-18 05:38 -42.69538 172.52444 16547 ft 297 kts 198°
2026-04-18 05:38 -42.71575 172.52034 16015 ft 296 kts 198°
2026-04-18 05:38 -42.73599 172.51637 15660 ft 292 kts 199°
2026-04-18 05:38 -42.75600 172.51249 15290 ft 288 kts 199°
2026-04-18 05:39 -42.77571 172.50856 14986 ft 284 kts 199°
2026-04-18 05:39 -42.79510 172.50495 14648 ft 279 kts 198°
2026-04-18 05:39 -42.81423 172.50155 14289 ft 276 kts 199°
2026-04-18 05:39 -42.83306 172.49797 14036 ft 271 kts 200°
2026-04-18 05:40 -42.85165 172.49399 13687 ft 270 kts 200°
2026-04-18 05:40 -42.87022 172.49010 13328 ft 270 kts 199°
2026-04-18 05:40 -42.88876 172.48643 12964 ft 270 kts 199°
2026-04-18 05:40 -42.90706 172.48276 12575 ft 269 kts 199°
2026-04-18 05:41 -42.92557 172.47913 12198 ft 268 kts 199°
2026-04-18 05:41 -42.94403 172.47564 11775 ft 267 kts 198°
2026-04-18 05:41 -42.96239 172.47232 11408 ft 265 kts 197°
2026-04-18 05:41 -42.98055 172.46886 11070 ft 262 kts 198°
2026-04-18 05:42 -42.99856 172.46513 10750 ft 261 kts 198°
2026-04-18 05:42 -43.01239 172.46439 10498 ft 268 kts 178°
2026-04-18 05:42 -43.03034 172.47231 10149 ft 275 kts 159°
2026-04-18 05:42 -43.04690 172.48545 9757 ft 275 kts 149°
2026-04-18 05:43 -43.06267 172.50021 9486 ft 275 kts 147°
2026-04-18 05:43 -43.07806 172.51459 9029 ft 259 kts 150°
2026-04-18 05:43 -43.09282 172.52778 8594 ft 246 kts 149°
2026-04-18 05:43 -43.10665 172.54040 8323 ft 234 kts 150°
2026-04-18 05:44 -43.12043 172.55180 8068 ft 229 kts 152°
2026-04-18 05:44 -43.13413 172.56294 7652 ft 225 kts 150°
2026-04-18 05:44 -43.14694 172.57416 7275 ft 223 kts 153°
2026-04-18 05:44 -43.16055 172.58543 6967 ft 232 kts 153°
2026-04-18 05:45 -43.17460 172.59685 6697 ft 238 kts 153°
2026-04-18 05:45 -43.18878 172.60887 6433 ft 243 kts 151°
2026-04-18 05:45 -43.20319 172.62140 6174 ft 246 kts 150°
2026-04-18 05:45 -43.21756 172.63412 5898 ft 247 kts 150°
2026-04-18 05:46 -43.23201 172.64693 5595 ft 248 kts 151°
2026-04-18 05:46 -43.24664 172.65964 5298 ft 249 kts 151°
2026-04-18 05:46 -43.26139 172.67222 4988 ft 249 kts 152°
2026-04-18 05:46 -43.27613 172.68470 4680 ft 247 kts 151°
2026-04-18 05:47 -43.29064 172.69710 4393 ft 245 kts 151°
2026-04-18 05:47 -43.30525 172.70873 4076 ft 238 kts 162°
2026-04-18 05:47 -43.32088 172.71045 3779 ft 224 kts 197°
2026-04-18 05:47 -43.33541 172.70382 3491 ft 217 kts 211°
2026-04-18 05:48 -43.34822 172.69386 3295 ft 210 kts 218°
2026-04-18 05:48 -43.36004 172.68261 3122 ft 200 kts 224°
2026-04-18 05:48 -43.37110 172.67111 2760 ft 203 kts 226°
2026-04-18 05:48 -43.38146 172.65791 2472 ft 203 kts 230°
2026-04-18 05:49 -43.39175 172.64428 2184 ft 204 kts 227°
2026-04-18 05:49 -43.40207 172.63216 1911 ft 186 kts 224°
2026-04-18 05:49 -43.41172 172.62143 1676 ft 170 kts 224°
2026-04-18 05:49 -43.42050 172.61161 1445 ft 156 kts 225°
2026-04-18 05:50 -43.42811 172.60258 1288 ft 134 kts 228°
2026-04-18 05:50 -43.43475 172.59461 1098 ft 122 kts 225°
2026-04-18 05:50 -43.44122 172.58726 969 ft 120 kts 225°
2026-04-18 05:51 -43.45928 172.56623 530 ft 115 kts 222°
2026-04-18 05:51 -43.46564 172.55888 370 ft 119 kts 222°
2026-04-18 05:51 -43.47185 172.55165 239 ft 119 kts 221°
2026-04-18 05:52 -43.47817 172.54450 121 ft 116 kts 222°
2026-04-18 05:52 -43.48370 172.53816 106 ft 66 kts 216°
2026-04-18 05:52 -43.48580 172.53563 111 ft 40 kts 220°
2026-04-18 05:52 -43.48757 172.53360 113 ft 11 kts 207°
2026-04-18 05:53 -43.48824 172.53408 113 ft 14 kts 130°
2026-04-18 05:53 -43.48892 172.53518 112 ft 15 kts 131°
2026-04-18 05:53 -43.48960 172.53626 113 ft 15 kts 133°
2026-04-18 05:53 -43.49029 172.53739 110 ft 1 kts 130°
2026-04-18 05:54 -43.49039 172.53755 111 ft 0 kts 133°
2026-04-18 05:54 -43.49047 172.53766 110 ft 5 kts 133°
2026-04-18 05:54 -43.49074 172.53812 110 ft 8 kts 133°
2026-04-18 05:54 -43.49115 172.53879 107 ft 10 kts 129°
2026-04-18 05:55 -43.49129 172.53904 108 ft 1 kts 112°
2026-04-18 05:55 -43.49126 172.53909 105 ft 2 kts 69°
2026-04-18 05:55 -43.49115 172.53927 108 ft 3 kts 40°
2026-04-18 05:55 -43.49104 172.53938 107 ft 2 kts 43°
2026-04-18 05:56 -43.49093 172.53951 107 ft 0 kts 41°